Theta_e
307 307 307 307 307 307 307 307 308 307 307 308 308 308 308 307 300 302 305 302 305 309 309 312 314 322 320 325 327 317 320 321 323 324 326 325 327 328 328 328 327 328 329 328 331
307 307 307 307 307 307 304 302 303 306 308 306 307 307 308 303 305 306 302 304 303 303 311 311 311 323 323 325 329 324 320 320 320 322 324 321 322 323 326 326 326 326 329 330 330
307 308 307 307 307 306 306 303 302 300 301 305 307 308 308 304 304 300 311 309 307 309 309 317 315 317 325 329 329 330 331 322 322 322 322 322 322 322 324 325 325 327 327 327 328
308 307 307 306 306 307 307 307 307 307 305 302 305 308 307 305 297 309 308 308 303 305 319 314 313 314 313 321 327 332 331 331 328 325 326 326 325 324 323 324 324 325 325 326 325
307 306 306 304 302 302 303 302 302 306 306 307 307 308 307 305 304 302 301 301 305 307 323 315 312 313 312 312 316 321 328 327 328 327 329 329 329 328 326 325 324 325 325 325 325
305 303 302 302 303 304 301 300 301 303 306 307 308 307 306 308 305 303 302 303 303 304 306 313 311 310 311 311 314 314 317 318 320 322 322 324 324 324 325 326 326 327 326 323 322
303 303 302 302 301 300 300 304 305 306 307 310 309 308 308 308 306 307 307 306 305 303 305 307 312 311 310 312 311 313 313 315 315 315 316 320 322 324 323 324 325 326 324 323 321
305 304 301 301 304 303 305 307 307 308 309 310 309 309 309 308 308 308 308 309 307 305 306 307 308 306 312 311 313 316 313 314 316 316 317 319 324 323 323 324 325 324 322 323 323
305 303 300 301 304 305 306 307 307 309 309 309 310 308 309 309 310 309 309 307 307 306 307 308 307 307 310 311 313 314 319 318 318 318 318 319 322 322 321 322 322 322 322 322 322
303 302 300 302 304 305 307 307 306 310 309 310 310 308 306 307 307 307 307 306 307 307 306 305 304 306 306 310 316 317 318 319 320 318 318 319 320 321 321 320 321 320 321 321 321
303 300 300 301 303 306 308 307 304 303 304 305 305 306 306 307 307 307 307 306 306 308 306 305 303 306 309 310 312 312 315 317 318 317 318 319 319 319 319 320 320 321 322 322 321
302 300 300 303 305 307 307 306 306 305 304 305 305 305 306 307 307 307 307 306 306 305 304 304 306 307 307 308 310 310 311 312 314 315 315 317 318 317 318 319 320 320 320 320 320
300 300 300 304 305 307 307 307 307 307 304 305 305 308 307 307 308 307 306 306 306 305 304 304 307 308 307 307 308 309 311 312 314 314 314 314 315 315 315 314 316 317 318 318 318
300 300 301 304 306 307 307 307 307 306 304 308 309 309 307 307 307 308 307 306 306 305 304 303 304 305 305 307 307 307 310 312 314 313 314 314 316 314 314 314 315 314 315 316 317
300 301 301 303 306 306 307 308 307 304 301 307 307 306 305 308 307 309 310 311 310 310 305 305 304 305 305 306 308 309 308 310 313 313 312 313 313 313 313 313 313 314 314 315 316
301 301 303 304 305 307 308 308 305 302 302 308 306 308 306 306 307 309 310 311 310 313 310 307 305 305 304 305 305 306 307 309 309 311 313 313 313 314 313 313 313 315 316 316 315
302 302 303 305 306 308 307 302 302 304 307 309 308 308 307 306 307 308 308 309 312 314 314 311 306 307 306 305 307 305 304 309 311 312 314 313 314 314 313 314 314 314 314 314 314
303 304 304 308 309 309 307 302 301 307 309 308 309 308 306 306 308 308 308 311 311 312 313 314 313 311 312 310 310 304 303 307 313 315 313 313 315 315 313 314 315 314 313 313 314
306 307 306 309 309 308 300 303 307 308 308 308 309 307 307 307 307 307 307 311 312 311 314 314 312 311 310 309 309 309 304 305 306 308 310 313 313 314 314 315 314 314 313 313 319
306 306 309 309 308 307 302 307 307 308 308 308 309 308 308 307 308 307 309 311 312 311 310 310 311 310 310 308 308 308 309 305 304 310 313 313 314 316 315 314 315 315 314 317 333
305 305 308 309 308 301 302 305 307 307 307 309 308 308 307 308 308 308 310 310 311 310 311 309 309 310 309 308 306 307 310 309 306 306 312 314 314 313 315 315 315 314 316 326 333
301 306 309 307 303 293 302 307 308 308 308 309 308 308 307 308 309 309 309 310 310 310 313 311 310 313 310 307 308 309 309 310 310 310 309 311 313 313 312 312 313 316 324 332 333
302 301 307 306 300 299 302 306 307 309 309 309 309 308 307 308 309 309 310 310 308 310 311 311 309 311 308 311 311 312 312 310 311 310 313 310 311 312 311 313 324 333 334 334 336
303 305 300 298 300 303 304 306 308 307 309 308 308 307 308 308 308 310 309 308 309 310 311 311 311 310 311 310 310 312 313 316 316 315 315 314 312 312 312 316 315 327 334 334 336
300 302 302 302 302 303 303 305 308 309 309 308 309 308 310 311 310 310 309 310 309 309 310 310 312 311 311 312 313 314 314 314 317 316 317 316 316 314 316 317 318 320 333 336 336
300 301 301 301 302 305 303 306 308 308 309 309 310 309 308 310 310 311 311 310 310 308 310 308 310 312 313 313 312 315 314 315 316 316 316 315 315 315 316 319 331 329 335 337 337
301 301 301 301 303 304 304 307 307 307 307 309 309 310 309 308 308 307 307 308 309 309 307 309 310 311 311 309 315 316 316 315 316 315 314 317 317 320 326 331 334 332 335 337 337
Wind_Speed
15 16 17 17 18 19 19 18 19 20 19 19 20 22 23 25 28 23 10 18 12 11 16 13 6 5 9 3 4 5 2 5 6 8 4 6 7 3 1 4 3 2 3 9 10
17 17 18 19 20 20 20 21 20 19 19 21 21 21 23 26 26 15 26 21 21 20 15 12 12 7 3 5 4 5 6 10 7 8 2 8 7 15 7 14 7 5 4 7 13
17 18 19 20 21 21 21 22 23 23 22 21 21 21 23 22 6 7 11 14 14 14 21 9 11 5 6 4 6 6 10 15 11 10 6 8 4 8 14 18 15 6 7 7 6
19 19 20 22 22 23 23 22 22 21 22 23 21 18 19 6 6 1 8 16 27 19 12 12 5 6 7 11 6 6 10 14 11 5 4 12 3 10 14 19 16 18 13 8 12
21 22 22 24 25 27 26 25 25 23 22 19 17 14 8 4 11 26 24 23 18 13 7 12 12 6 8 6 5 15 9 6 9 9 11 11 18 19 20 15 16 17 16 13 12
23 24 25 26 28 27 26 26 25 25 22 18 13 8 3 7 10 14 17 21 17 13 9 11 7 6 4 6 14 1 8 13 11 15 7 12 18 16 17 19 18 15 14 12 11
26 26 28 30 32 28 25 25 27 23 18 14 8 5 6 19 17 28 31 29 27 16 4 10 19 5 5 1 7 4 8 11 13 4 7 3 21 25 19 22 24 18 14 15 10
28 28 29 31 28 23 21 24 25 14 9 4 3 3 8 23 19 24 15 22 18 14 17 17 17 5 5 3 5 3 4 14 17 13 7 8 31 9 6 16 23 19 13 13 17
27 28 29 31 28 24 23 24 19 9 7 5 8 6 10 17 11 15 4 17 15 10 11 11 4 6 3 4 4 5 12 15 11 5 7 12 37 13 15 15 18 15 15 14 13
25 27 28 29 26 23 20 15 18 6 9 1 2 2 7 12 23 26 33 20 6 5 4 6 4 5 3 6 16 10 14 3 4 3 8 12 30 18 10 9 14 12 14 15 18
26 29 30 26 22 17 17 7 8 5 5 6 12 8 17 16 25 17 13 9 9 3 4 5 4 15 18 15 12 6 6 2 4 7 12 17 27 24 18 19 22 22 23 23 20
28 28 29 25 20 11 12 2 3 8 8 13 15 11 21 8 5 12 4 5 1 6 7 3 17 7 1 3 9 12 10 8 6 11 5 10 17 17 14 16 17 17 16 15 14
29 27 26 24 12 7 14 6 18 18 2 8 6 6 10 1 4 8 5 2 4 6 6 8 6 5 11 6 10 7 8 9 8 9 18 12 18 15 12 11 15 12 15 11 13
30 27 21 23 4 15 9 18 22 10 2 5 5 5 10 7 3 7 4 5 3 6 5 6 7 10 7 6 15 15 4 9 4 5 9 0 16 20 18 23 20 12 16 14 15
31 26 19 14 12 7 14 22 22 3 3 13 4 11 16 2 10 5 3 3 5 9 3 8 6 3 10 10 8 7 12 11 10 8 4 4 4 24 5 17 20 20 19 22 21
32 24 20 4 8 13 16 27 2 4 4 7 9 14 11 13 10 6 5 1 1 6 6 17 7 9 7 8 8 6 4 8 9 2 5 11 9 24 9 16 12 10 10 11 11
33 24 11 7 4 14 19 5 4 4 7 7 14 16 16 8 11 5 13 8 2 3 2 5 15 7 7 6 5 5 3 1 2 3 12 12 11 25 7 4 4 8 10 11 10
35 13 4 10 9 13 9 5 7 2 4 6 10 16 4 10 8 9 10 5 3 9 2 1 3 9 6 11 7 7 9 4 6 5 5 11 13 11 10 16 17 14 11 9 10
25 9 2 0 3 3 5 5 2 4 8 9 10 4 4 12 6 6 4 3 2 6 1 4 3 2 2 1 5 2 4 9 4 3 2 7 9 13 21 18 9 11 7 10 9
12 10 5 0 2 4 5 3 3 5 11 7 4 2 5 9 6 7 4 2 4 5 2 4 0 4 5 3 6 5 3 3 1 5 5 5 8 12 6 23 3 9 9 9 5
5 4 7 5 1 5 2 5 7 8 9 4 4 5 6 5 5 4 5 7 2 6 6 3 1 3 2 4 3 2 2 4 3 5 4 3 6 7 12 8 9 14 14 9 9
7 3 9 3 4 0 1 6 9 8 7 5 4 4 4 6 5 4 4 4 5 2 4 3 2 4 8 7 8 2 4 3 3 6 8 2 7 8 6 6 9 14 16 7 9
4 3 5 2 2 3 5 6 4 7 8 5 5 3 2 4 4 6 6 5 8 2 2 2 1 3 7 3 4 1 5 5 3 1 10 5 7 8 8 11 9 7 5 5 13
2 4 4 4 0 2 4 4 7 10 7 9 6 4 5 6 6 7 9 6 4 4 9 5 3 4 4 7 6 9 11 5 4 3 6 20 13 30 12 13 16 9 5 3 10
3 2 1 4 4 7 3 4 7 8 3 6 4 4 14 6 14 7 6 5 7 10 4 6 5 5 9 12 14 15 16 17 12 8 7 7 7 21 9 14 14 8 7 9 7
2 3 3 4 6 5 5 3 8 12 5 8 6 17 15 10 14 22 19 9 10 6 3 3 4 3 9 10 19 18 19 18 17 17 13 13 19 14 7 10 13 10 13 14 11
4 4 0 5 4 4 3 5 14 14 8 9 13 15 13 16 14 20 19 21 18 16 7 6 4 1 6 10 11 12 20 22 15 12 12 10 8 7 13 8 6 6 13 17 16
Wind_Direction
354 350 346 342 338 333 330 329 328 330 328 329 330 331 328 325 320 315 246 253 267 284 264 250 283 207 207 241 197 140 117 217 233 170 227 299 343 221 279 338 17 338 151 253 208
349 345 339 336 333 331 333 333 332 327 325 329 328 330 330 334 323 266 292 284 282 274 274 229 234 181 182 207 211 168 186 223 198 205 108 326 344 315 351 317 294 311 336 293 208
347 341 337 333 331 329 329 331 331 329 326 324 324 329 332 338 297 252 94 34 355 329 250 249 250 183 196 195 200 203 221 228 243 218 200 261 271 271 302 297 270 288 297 270 211
345 340 336 334 331 329 326 321 317 315 317 319 323 329 331 342 292 258 254 316 323 336 232 223 231 199 189 205 203 237 215 226 254 230 231 232 230 246 241 252 280 291 280 283 293
344 341 338 338 336 332 326 322 318 313 309 309 314 331 355 13 251 282 303 318 335 340 229 210 203 191 198 201 188 244 238 228 247 260 250 266 259 258 251 250 264 267 277 265 260
343 344 342 339 336 330 329 326 325 322 310 305 302 312 290 295 270 304 310 309 311 337 333 203 214 207 244 214 206 124 220 244 248 257 264 255 265 264 266 270 252 259 260 248 232
348 346 343 340 339 338 339 339 334 324 314 296 295 290 281 253 282 298 299 293 288 273 281 276 250 247 166 293 252 262 292 281 239 199 241 359 273 253 258 266 272 273 264 270 257
338 337 340 338 334 340 341 344 343 330 323 273 187 201 255 285 313 304 322 313 302 254 232 260 270 250 180 300 318 216 191 244 254 227 217 166 261 239 254 242 260 260 261 272 278
337 339 340 336 332 338 343 351 353 59 40 113 141 162 270 317 292 326 344 323 307 244 229 243 201 195 180 160 350 235 239 228 260 203 208 185 257 248 246 255 261 265 269 272 275
338 338 338 335 334 341 347 358 350 315 34 56 166 282 281 311 299 303 302 310 274 283 216 203 183 173 168 160 213 217 229 295 182 206 225 236 256 252 244 250 260 263 268 271 272
339 341 340 338 341 343 351 358 9 344 339 246 258 250 267 269 293 286 294 315 302 227 213 200 166 212 208 223 272 339 301 15 337 227 218 225 250 257 255 253 257 259 262 262 265
345 346 341 338 341 347 352 46 340 292 303 286 254 243 259 253 292 291 109 166 326 303 318 295 231 222 94 199 232 261 275 277 281 270 272 280 273 281 267 257 256 260 256 253 267
349 348 341 334 331 348 335 279 346 342 266 296 254 262 283 106 258 282 141 109 222 258 249 231 260 238 236 249 248 235 227 254 247 310 299 304 286 272 262 254 254 255 257 254 244
349 347 344 337 339 333 308 339 334 338 23 283 331 291 331 318 284 297 180 164 222 235 258 246 235 245 258 238 229 253 230 254 261 211 259 333 289 274 270 266 260 247 254 255 250
348 346 336 334 300 314 315 332 335 103 11 315 349 326 328 302 308 324 60 86 268 263 192 231 284 251 236 240 230 250 236 251 227 241 274 254 290 278 244 260 250 248 248 251 254
343 340 333 301 283 307 314 326 350 50 278 330 349 327 327 323 330 334 293 305 199 277 225 231 240 244 219 252 245 253 224 229 225 132 250 224 203 275 238 251 248 240 244 244 245
337 329 306 260 251 308 320 12 37 90 348 345 317 320 318 318 322 337 324 299 109 331 307 345 230 257 226 236 252 177 85 253 138 190 229 199 201 238 268 276 256 255 258 258 263
337 336 253 259 308 309 344 45 60 343 291 302 309 310 321 346 318 332 323 342 145 217 255 105 240 184 211 200 200 191 164 185 182 183 226 249 233 244 231 259 259 260 258 262 259
347 360 309 329 291 331 57 37 229 325 313 320 326 311 312 333 303 333 318 277 325 28 38 259 239 51 55 54 150 226 163 216 360 240 223 233 276 281 271 269 277 271 280 258 251
346 338 321 359 165 60 68 284 245 287 311 312 278 271 303 317 317 333 293 302 2 16 150 267 333 359 13 355 211 169 205 100 138 225 238 258 253 233 251 251 279 273 252 253 182
8 30 11 141 270 51 124 236 273 288 345 320 280 284 289 305 285 283 312 311 28 342 321 320 84 279 14 220 209 283 197 210 195 210 223 290 259 205 213 271 324 300 291 206 174
349 51 345 319 34 231 351 301 305 336 338 300 282 239 262 298 273 275 282 286 347 5 328 351 197 238 235 240 248 272 246 170 197 231 251 255 265 276 295 321 303 303 306 143 132
346 276 5 32 65 320 301 286 285 337 314 317 293 273 302 276 307 277 254 266 319 252 206 284 297 319 339 18 52 204 246 214 252 289 248 226 251 315 14 333 326 355 21 128 125
0 355 328 43 113 126 311 275 330 320 294 314 266 287 334 290 248 269 273 292 338 233 269 140 218 193 203 264 317 295 287 269 203 245 252 244 288 279 316 335 320 300 111 104 139
30 328 242 308 328 317 261 262 321 343 259 286 292 293 314 283 296 251 237 295 295 279 255 161 227 217 245 261 283 276 263 265 244 237 239 303 288 272 311 298 302 270 151 137 175
36 15 340 279 266 291 310 277 315 326 305 296 275 305 305 276 272 288 280 250 246 291 262 191 251 247 272 256 257 277 254 252 255 252 254 261 274 277 269 301 312 240 167 163 171
359 322 194 275 288 302 268 315 312 309 294 254 297 306 299 291 296 286 273 269 257 256 227 187 203 247 258 287 301 280 231 224 228 231 216 228 257 332 312 315 322 296 181 171 167